When you browse on this site, cookies collect data to enhance your experience and personalize the content and advertising you see.
Visit our Privacy Policy to learn more. By continuing to use the site, you agree to this use of cookies and data.
  • In Lithuania
  • List of Countries
  • For 7 days
  • Water Temperature
  • Weather Map
  • Weather Widgets
  • user-avatar
    Login

    Hourly Weather Ljubljana

    Today, 5 April, Sunday

    Time Temperature Precipitation Wind Pressure Humidity
    00:00 +1°C° 0 mm 1 mps 671 mmHg 80%
    01:00 -1°C° 0 mm 2 mps 671 mmHg 80%
    02:00 -2°C° 0 mm 2 mps 671 mmHg 81%
    03:00 0°C° 0 mm 1 mps 671 mmHg 83%
    04:00 0°C° 0 mm 1 mps 671 mmHg 85%
    05:00 +1°C° 0 mm 1 mps 671 mmHg 82%
    06:00 +1°C° 0 mm 1 mps 672 mmHg 78%
    07:00 +3°C° 0 mm 1 mps 672 mmHg 72%
    08:00 +4°C° 0 mm 2 mps 673 mmHg 63%
    09:00 +6°C° 0 mm 2 mps 673 mmHg 54%
    10:00 +8°C° 0 mm 2 mps 674 mmHg 44%
    11:00 +9°C° 0 mm 2 mps 674 mmHg 42%
    12:00 +10°C° 0 mm 2 mps 674 mmHg 40%
    13:00 +11°C° 0 mm 3 mps 673 mmHg 36%
    14:00 +12°C° 0 mm 2 mps 673 mmHg 38%
    15:00 +12°C° 0 mm 2 mps 673 mmHg 40%
    16:00 +10°C° 0 mm 2 mps 672 mmHg 42%
    17:00 +8°C° 0 mm 2 mps 672 mmHg 51%
    18:00 +7°C° 0 mm 1 mps 672 mmHg 60%
    19:00 +5°C° 0 mm 1 mps 671 mmHg 69%
    20:00 +4°C° 0 mm 1 mps 672 mmHg 71%
    21:00 +3°C° 0 mm 1 mps 672 mmHg 72%
    22:00 +3°C° 0 mm 1 mps 672 mmHg 73%
    23:00 +3°C° 0 mm 1 mps 672 mmHg 75%

    Tomorrow, 6 April, Monday

    Time Temperature Precipitation Wind Pressure Humidity
    00:00 +2°C° 0 mm 1 mps 672 mmHg 76%
    01:00 +2°C° 0 mm 1 mps 672 mmHg 77%
    02:00 +2°C° 0 mm 1 mps 672 mmHg 78%
    03:00 +2°C° 0 mm 1 mps 672 mmHg 80%
    04:00 +2°C° 0 mm 1 mps 672 mmHg 82%
    05:00 +2°C° 0 mm 1 mps 672 mmHg 79%
    06:00 +3°C° 0 mm 1 mps 672 mmHg 77%
    07:00 +4°C° 0 mm 1 mps 673 mmHg 75%
    08:00 +6°C° 0 mm 1 mps 673 mmHg 66%
    09:00 +7°C° 0 mm 2 mps 674 mmHg 58%
    10:00 +9°C° 0 mm 2 mps 675 mmHg 50%
    11:00 +10°C° 0 mm 2 mps 675 mmHg 47%
    12:00 +12°C° 0 mm 2 mps 675 mmHg 45%
    13:00 +13°C° 0 mm 2 mps 675 mmHg 42%
    14:00 +13°C° 0 mm 2 mps 675 mmHg 43%
    15:00 +12°C° 0 mm 2 mps 675 mmHg 44%
    16:00 +12°C° 0 mm 2 mps 675 mmHg 44%
    17:00 +9°C° 0 mm 2 mps 674 mmHg 52%
    18:00 +7°C° 0 mm 2 mps 674 mmHg 60%
    19:00 +5°C° 0 mm 1 mps 673 mmHg 69%
    20:00 +5°C° 0 mm 1 mps 674 mmHg 70%
    21:00 +4°C° 0 mm 1 mps 674 mmHg 71%
    22:00 +3°C° 0 mm 1 mps 675 mmHg 73%
    23:00 +2°C° 0 mm 1 mps 675 mmHg 74%

    Day after tomorrow, 7 April, Tuesday

    Time Temperature Precipitation Wind Pressure Humidity
    00:00 +2°C° 0 mm 1 mps 674 mmHg 75%
    01:00 +1°C° 0 mm 1 mps 674 mmHg 77%
    02:00 +1°C° 0 mm 1 mps 674 mmHg 77%
    03:00 0°C° 0 mm 1 mps 674 mmHg 78%
    04:00 0°C° 0 mm 1 mps 674 mmHg 79%
    05:00 +1°C° 0 mm 1 mps 674 mmHg 76%
    06:00 +2°C° 0 mm 1 mps 674 mmHg 73%
    07:00 +2°C° 0 mm 1 mps 675 mmHg 69%
    08:00 +5°C° 0 mm 1 mps 675 mmHg 60%
    09:00 +7°C° 0 mm 1 mps 676 mmHg 50%
    10:00 +8°C° 0 mm 2 mps 676 mmHg 40%
    11:00 +10°C° 0 mm 2 mps 677 mmHg 37%
    12:00 +12°C° 0 mm 2 mps 677 mmHg 33%
    13:00 +13°C° 0 mm 2 mps 677 mmHg 30%
    14:00 +13°C° 0 mm 2 mps 677 mmHg 31%
    15:00 +13°C° 0 mm 2 mps 676 mmHg 32%
    16:00 +12°C° 0 mm 2 mps 676 mmHg 33%
    17:00 +9°C° 0 mm 2 mps 675 mmHg 41%
    18:00 +7°C° 0 mm 1 mps 675 mmHg 49%
    19:00 +5°C° 0 mm 1 mps 674 mmHg 57%
    20:00 +4°C° 0 mm 1 mps 674 mmHg 58%
    21:00 +3°C° 0 mm 1 mps 675 mmHg 59%
    22:00 +2°C° 0 mm 1 mps 675 mmHg 59%
    23:00 +2°C° 0 mm 1 mps 675 mmHg 60%

    8 April, Wednesday

    Time Temperature Precipitation Wind Pressure Humidity
    00:00 +1°C° 0 mm 1 mps 674 mmHg 61%
    01:00 0°C° 0 mm 0 mps 674 mmHg 61%
    02:00 +1°C° 0 mm 1 mps 674 mmHg 62%
    03:00 0°C° 0 mm 1 mps 674 mmHg 63%
    04:00 0°C° 0 mm 1 mps 673 mmHg 64%
    05:00 +1°C° 0 mm 1 mps 673 mmHg 61%
    06:00 +1°C° 0 mm 0 mps 674 mmHg 58%
    07:00 +2°C° 0 mm 0 mps 674 mmHg 55%
    08:00 +5°C° 0 mm 1 mps 674 mmHg 48%
    09:00 +8°C° 0 mm 1 mps 674 mmHg 41%
    10:00 +10°C° 0 mm 1 mps 675 mmHg 33%
    11:00 +11°C° 0 mm 1 mps 674 mmHg 32%
    12:00 +12°C° 0 mm 1 mps 674 mmHg 31%
    13:00 +14°C° 0 mm 1 mps 674 mmHg 30%
    14:00 +13°C° 0 mm 1 mps 674 mmHg 32%
    15:00 +13°C° 0 mm 1 mps 673 mmHg 33%
    16:00 +13°C° 0 mm 1 mps 673 mmHg 35%
    17:00 +10°C° 0 mm 1 mps 672 mmHg 44%
    18:00 +8°C° 0 mm 1 mps 672 mmHg 52%
    19:00 +5°C° 0 mm 1 mps 671 mmHg 61%
    20:00 +5°C° 0 mm 1 mps 671 mmHg 62%
    21:00 +4°C° 0 mm 1 mps 671 mmHg 64%
    22:00 +4°C° 0 mm 1 mps 671 mmHg 65%
    23:00 +3°C° 0 mm 1 mps 671 mmHg 67%

    9 April, Thursday

    Time Temperature Precipitation Wind Pressure Humidity
    00:00 +3°C° 0 mm 1 mps 671 mmHg 68%
    01:00 +1°C° 0 mm 0 mps 671 mmHg 70%
    02:00 +1°C° 0 mm 0 mps 670 mmHg 72%
    03:00 +1°C° 0 mm 0 mps 670 mmHg 74%
    04:00 0°C° 0 mm 0 mps 670 mmHg 75%
    05:00 +1°C° 0 mm 0 mps 670 mmHg 72%
    06:00 +2°C° 0 mm 0 mps 670 mmHg 69%
    07:00 +3°C° 0 mm 0 mps 670 mmHg 66%
    08:00 +6°C° 0 mm 0 mps 671 mmHg 58%
    09:00 +10°C° 0 mm 1 mps 671 mmHg 50%
    10:00 +12°C° 0 mm 1 mps 672 mmHg 43%
    11:00 +14°C° 0 mm 1 mps 672 mmHg 39%
    12:00 +15°C° 0 mm 1 mps 672 mmHg 36%
    13:00 +16°C° 0 mm 1 mps 672 mmHg 33%
    14:00 +16°C° 0 mm 1 mps 672 mmHg 33%
    15:00 +15°C° 0 mm 1 mps 671 mmHg 34%
    16:00 +15°C° 0 mm 1 mps 671 mmHg 34%
    17:00 +13°C° 0 mm 1 mps 670 mmHg 43%
    18:00 +10°C° 0 mm 1 mps 670 mmHg 51%
    19:00 +8°C° 0 mm 1 mps 669 mmHg 60%
    20:00 +7°C° 0 mm 1 mps 669 mmHg 61%
    21:00 +6°C° 0 mm 1 mps 670 mmHg 61%
    22:00 +5°C° 0 mm 0 mps 670 mmHg 62%
    23:00 +5°C° 0 mm 0 mps 670 mmHg 64%

    10 April, Friday

    Time Temperature Precipitation Wind Pressure Humidity
    00:00 +4°C° 0 mm 0 mps 670 mmHg 66%
    01:00 +4°C° 0 mm 0 mps 670 mmHg 67%
    02:00 +4°C° 0 mm 0 mps 670 mmHg 68%
    03:00 +4°C° 0 mm 0 mps 670 mmHg 70%
    04:00 +3°C° 0 mm 0 mps 670 mmHg 71%
    05:00 +4°C° 0 mm 0 mps 670 mmHg 69%
    06:00 +5°C° 0 mm 0 mps 671 mmHg 67%
    07:00 +6°C° 0 mm 0 mps 671 mmHg 65%
    08:00 +10°C° 0 mm 1 mps 672 mmHg 59%
    09:00 +12°C° 0 mm 1 mps 672 mmHg 53%
    10:00 +14°C° 0 mm 1 mps 673 mmHg 48%
    11:00 +15°C° 0 mm 1 mps 673 mmHg 46%
    12:00 +15°C° 0 mm 1 mps 673 mmHg 45%
    13:00 +16°C° 0 mm 1 mps 673 mmHg 43%
    14:00 +16°C° 0 mm 1 mps 672 mmHg 44%
    15:00 +15°C° 0 mm 1 mps 672 mmHg 45%
    16:00 +15°C° 0 mm 1 mps 671 mmHg 46%
    17:00 +13°C° 0 mm 1 mps 671 mmHg 54%
    18:00 +11°C° 0 mm 1 mps 671 mmHg 62%
    19:00 +9°C° 0 mm 1 mps 670 mmHg 70%
    20:00 +8°C° 0 mm 1 mps 670 mmHg 73%
    21:00 +8°C° 0 mm 1 mps 670 mmHg 75%
    22:00 +7°C° 0 mm 1 mps 670 mmHg 77%
    23:00 +7°C° 0 mm 1 mps 670 mmHg 79%
    Show more